Probability
0 0 0 0 0 0 0 0 0 0 0 0 0 0 0 0 0 0 0 0 0 0 0 0 0 0 0 0 0 0 0 0 0 0 0 0 0 0 0 0 0 0 0
0 0 0 0 0 0 0 0 0 0 0 0 0 0 0 0 0 0 0 0 0 0 0 0 0 0 0 0 0 0 0 0 0 0 0 0 0 0 0 0 0 0 0
0 0 0 0 0 0 0 0 0 0 0 0 0 0 0 0 0 0 0 0 0 0 0 0 0 0 0 0 0 0 0 0 0 0 0 0 0 0 0 0 0 0 0
0 0 0 0 0 0 0 0 0 0 0 0 0 0 0 0 0 0 0 0 0 0 0 0 0 0 0 0 0 0 0 0 0 0 0 0 0 0 0 0 0 0 0
0 0 0 0 0 0 0 0 0 0 0 0 0 0 0 0 0 0 0 0 0 0 0 0 0 0 0 0 0 0 0 0 0 0 0 0 0 0 0 0 0 0 0
0 0 0 0 0 0 0 0 0 0 0 0 0 0 0 0 0 0 0 0 0 0 0 0 0 0 0 0 0 0 0 0 0 0 0 0 0 0 0 0 0 0 0
0 0 0 0 0 0 0 0 0 0 0 0 0 0 0 0 0 0 0 0 0 0 0 0 0 0 0 0 0 0 0 0 0 0 0 0 0 0 0 0 0 0 0
0 0 0 0 0 0 0 0 0 0 0 0 0 0 0 0 0 0 0 0 0 0 0 0 0 0 0 0 0 0 0 0 0 0 0 0 0 0 0 0 0 0 0
0 0 0 0 0 0 0 0 0 0 0 0 0 0 0 0 0 0 0 0 0 0 0 0 0 0 0 0 0 0 0 0 0 0 0 0 0 0 0 0 0 0 0
0 0 0 0 0 0 0 0 0 0 0 0 0 0 0 0 0 0 0 0 0 0 0 0 0 0 0 0 0 0 0 0 0 0 0 0 0 0 0 0 0 0 0
0 0 0 0 0 0 0 0 0 0 0 0 0 0 0 0 0 0 0 0 0 0 0 0 0 0 0 0 0 0 0 0 0 0 0 0 0 0 0 0 0 0 0
0 0 0 0 0 0 0 0 0 0 0 0 0 0 0 0 0 0 0 0 0 0 0 0 0 0 0 0 0 0 0 0 0 0 0 0 0 0 0 0 0 0 0
0 0 0 0 0 0 0 0 0 0 0 0 0 0 0 0 0 0 0 0 0 0 0 0 0 0 0 0 0 0 0 0 0 0 0 0 0 0 0 0 0 0 0
0 0 0 0 0 0 0 0 0 0 0 0 0 0 0 0 0 0 0 0 0 0 0 0 0 0 0 0 0 0 0 0 0 0 0 0 0 0 0 0 0 0 0
0 0 0 0 0 0 0 0 0 0 0 0 0 0 0 0 0 0 0 0 0 0 0 0 0 0 0 0 0 0 0 0 0 0 0 0 0 0 0 0 0 0 0
0 0 0 0 0 0 0 0 0 0 0 0 0 0 0 0 0 0 0 0 0 0 0 0 0 0 0 0 0 0 0 0 0 0 0 0 0 0 0 0 0 0 0
0 0 0 0 0 0 0 0 0 0 0 0 0 0 0 0 0 0 0 0 0 0 0 0 0 0 0 0 0 0 0 0 0 0 0 0 0 0 0 0 0 0 0
0 0 0 0 0 0 0 0 0 0 0 0 0 0 0 0 0 0 0 0 0 0 0 0 0 0 0 0 0 0 0 0 0 0 0 0 0 0 0 0 0 0 0
0 0 0 0 0 0 0 0 0 0 0 0 0 0 0 0 0 0 0 0 0 0 0 0 0 0 0 0 0 0 0 0 0 0 0 0 0 0 0 0 0 0 0
0 0 0 0 0 0 0 0 0 0 0 0 0 0 0 0 0 0 0 0 0 0 0 0 0 0 0 0 0 0 0 0 0 0 0 0 0 0 0 0 0 0 0
0 0 0 0 0 0 0 0 0 0 0 0 0 0 0 0 0 0 0 0 0 0 0 0 0 0 0 0 0 0 0 0 0 0 0 0 0 0 0 0 0 0 0
0 0 0 0 0 0 0 0 0 0 0 0 0 0 0 0 0 0 0 0 0 0 0 0 0 0 0 0 0 0 0 0 0 0 0 0 0 0 0 0 0 0 0
0 0 0 0 0 0 0 0 0 0 0 0 0 0 0 0 0 0 0 0 0 0 0 0 0 0 0 0 0 0 0 0 0 0 0 0 0 0 0 0 0 0 0
0 0 0 0 0 0 0 0 0 0 0 0 0 0 0 0 0 0 0 0 0 0 0 0 0 0 0 0 0 0 0 0 0 0 0 0 0 0 0 0 0 0 0
0 0 0 0 0 0 0 0 0 0 0 0 0 0 0 0 0 0 0 0 0 0 0 0 0 0 0 0 0 0 0 0 0 0 0 0 0 0 0 0 0 0 0
0 0 0 0 0 0 0 0 0 0 0 0 0 0 0 0 0 0 0 0 0 0 0 0 0 0 0 0 0 0 0 0 0 0 0 0 0 0 0 0 0 0 0
Height
5763 5757 5752 5746 5740 5734 5728 5723 5717 5712 5708 5704 5700 5697 5694 5692 5691 5691 5691 5692 5693 5695 5697 5700 5703 5707 5711 5715 5719 5724 5728 5732 5737 5742 5747 5753 5759 5765 5772 5779 5786 5792 5798
5757 5750 5744 5737 5731 5724 5718 5711 5706 5700 5696 5691 5688 5685 5682 5679 5678 5677 5676 5677 5678 5680 5682 5685 5689 5692 5697 5702 5707 5712 5717 5722 5727 5732 5738 5744 5750 5756 5763 5770 5778 5784 5791
5750 5743 5736 5729 5722 5714 5707 5701 5694 5689 5684 5679 5675 5672 5669 5666 5664 5662 5661 5661 5662 5663 5665 5668 5672 5676 5682 5687 5693 5699 5705 5711 5716 5722 5728 5735 5741 5747 5754 5762 5769 5777 5784
5744 5736 5729 5721 5713 5705 5698 5690 5684 5678 5673 5668 5663 5659 5655 5652 5649 5647 5645 5644 5644 5645 5647 5650 5654 5658 5664 5670 5677 5684 5691 5698 5705 5711 5718 5725 5731 5737 5745 5753 5761 5769 5776
5737 5730 5722 5713 5705 5696 5688 5681 5674 5667 5662 5656 5651 5646 5642 5638 5634 5631 5629 5627 5627 5627 5628 5631 5634 5639 5645 5652 5660 5668 5675 5683 5692 5699 5707 5714 5720 5727 5736 5744 5752 5760 5768
5730 5722 5714 5705 5696 5687 5679 5671 5664 5657 5651 5645 5639 5634 5628 5624 5619 5615 5612 5610 5609 5609 5609 5611 5614 5619 5626 5633 5641 5649 5659 5668 5677 5686 5695 5702 5710 5718 5726 5734 5743 5752 5760
5723 5715 5706 5697 5688 5679 5670 5662 5654 5647 5640 5633 5627 5621 5615 5610 5605 5600 5596 5594 5592 5591 5590 5591 5594 5599 5605 5612 5621 5630 5640 5650 5661 5671 5681 5690 5699 5708 5716 5725 5733 5741 5750
5716 5707 5698 5689 5680 5670 5661 5653 5645 5637 5630 5623 5616 5609 5603 5597 5591 5586 5581 5578 5575 5574 5572 5573 5575 5578 5584 5591 5600 5610 5621 5633 5645 5657 5668 5677 5685 5695 5705 5714 5722 5731 5740
5709 5700 5690 5681 5672 5662 5653 5644 5636 5628 5620 5612 5605 5598 5591 5585 5578 5572 5567 5563 5559 5557 5555 5554 5556 5559 5564 5571 5580 5591 5603 5614 5626 5638 5651 5661 5672 5683 5692 5701 5710 5720 5729
5702 5692 5683 5673 5663 5654 5644 5635 5627 5619 5610 5602 5594 5586 5580 5573 5566 5559 5553 5549 5545 5541 5538 5537 5538 5542 5546 5552 5562 5573 5585 5598 5609 5622 5634 5647 5658 5670 5680 5690 5700 5710 5720
5694 5684 5675 5665 5655 5646 5636 5627 5618 5610 5601 5593 5585 5577 5569 5562 5555 5548 5542 5537 5532 5528 5525 5523 5523 5526 5530 5537 5547 5558 5570 5581 5592 5605 5618 5631 5644 5657 5668 5679 5690 5700 5711
5686 5677 5667 5657 5648 5638 5628 5619 5610 5601 5593 5584 5576 5568 5560 5553 5546 5539 5533 5527 5522 5518 5515 5513 5512 5514 5519 5526 5535 5545 5555 5566 5579 5591 5604 5618 5632 5645 5657 5668 5679 5689 5699
5679 5669 5660 5650 5640 5630 5621 5612 5603 5594 5585 5577 5569 5561 5553 5546 5538 5532 5527 5521 5516 5512 5509 5507 5507 5509 5513 5519 5527 5536 5545 5556 5568 5580 5593 5607 5619 5632 5644 5656 5667 5678 5688
5672 5662 5653 5643 5633 5623 5614 5605 5597 5588 5579 5570 5563 5555 5547 5540 5533 5528 5523 5517 5513 5509 5506 5504 5504 5506 5510 5516 5522 5530 5540 5550 5560 5571 5582 5594 5606 5619 5633 5645 5657 5668 5679
5665 5655 5646 5637 5627 5618 5608 5600 5591 5582 5573 5565 5558 5550 5543 5536 5530 5524 5520 5515 5512 5509 5506 5505 5505 5507 5511 5515 5521 5528 5536 5545 5554 5564 5574 5585 5597 5610 5623 5635 5647 5658 5670
5658 5649 5640 5631 5622 5613 5603 5594 5585 5577 5569 5561 5553 5546 5540 5533 5527 5522 5518 5515 5512 5510 5508 5507 5507 5509 5512 5516 5521 5527 5534 5542 5550 5558 5567 5577 5589 5601 5614 5626 5638 5649 5660
5651 5643 5634 5626 5617 5608 5599 5591 5582 5574 5565 5557 5550 5543 5537 5531 5526 5521 5517 5515 5512 5511 5510 5509 5510 5511 5513 5517 5521 5527 5532 5538 5546 5553 5562 5572 5582 5594 5606 5618 5630 5641 5652
5644 5636 5628 5620 5612 5603 5595 5586 5578 5571 5563 5555 5548 5541 5535 5530 5525 5521 5517 5515 5513 5512 5511 5511 5512 5513 5515 5517 5521 5525 5530 5536 5543 5550 5558 5567 5577 5587 5599 5610 5622 5633 5643
5638 5630 5622 5614 5606 5598 5590 5583 5575 5567 5560 5552 5545 5539 5534 5529 5524 5520 5517 5515 5514 5513 5512 5513 5513 5514 5516 5518 5521 5524 5529 5534 5540 5547 5555 5563 5572 5582 5593 5603 5614 5625 5635
5631 5623 5616 5609 5602 5594 5586 5579 5572 5564 5557 5550 5544 5538 5532 5527 5523 5520 5517 5515 5513 5513 5512 5513 5514 5515 5516 5518 5521 5524 5528 5532 5538 5544 5551 5559 5567 5576 5586 5596 5607 5618 5628
5623 5617 5610 5603 5597 5590 5583 5576 5569 5562 5555 5548 5542 5536 5531 5526 5522 5519 5516 5514 5512 5512 5512 5512 5513 5514 5516 5518 5520 5523 5526 5530 5535 5541 5547 5554 5562 5571 5580 5590 5600 5610 5621
5616 5610 5604 5598 5592 5585 5579 5573 5566 5560 5553 5546 5540 5535 5529 5525 5521 5517 5514 5512 5511 5510 5510 5511 5512 5513 5515 5516 5519 5522 5525 5529 5533 5538 5544 5550 5558 5566 5574 5584 5593 5603 5613
5609 5604 5598 5593 5587 5581 5575 5569 5563 5557 5551 5545 5539 5533 5528 5523 5519 5515 5512 5510 5509 5508 5508 5508 5509 5510 5512 5514 5517 5519 5523 5526 5531 5535 5540 5547 5553 5561 5569 5578 5587 5597 5607
5602 5597 5592 5587 5582 5577 5571 5566 5560 5555 5549 5543 5537 5532 5526 5521 5516 5513 5510 5507 5506 5505 5505 5505 5506 5507 5509 5511 5513 5516 5520 5523 5527 5532 5537 5543 5549 5556 5563 5572 5581 5591 5600
5594 5590 5586 5582 5577 5572 5567 5562 5557 5552 5547 5542 5536 5531 5525 5520 5515 5511 5508 5505 5504 5502 5502 5502 5502 5503 5505 5507 5510 5513 5516 5520 5524 5528 5533 5539 5545 5551 5559 5567 5576 5585 5595
5587 5583 5580 5576 5572 5568 5563 5559 5555 5550 5545 5541 5535 5530 5525 5520 5515 5511 5507 5504 5502 5500 5499 5499 5499 5499 5501 5503 5506 5509 5512 5516 5520 5524 5529 5535 5541 5547 5555 5563 5572 5581 5590
Wind_Speed
36 36 36 37 38 39 39 40 40 40 40 40 40 40 40 41 41 41 41 41 41 41 42 42 42 43 42 41 39 38 37 35 35 37 37 38 41 43 44 44 43 41 39
37 37 38 39 40 40 41 41 41 40 40 39 39 39 40 41 42 43 43 44 44 44 44 45 45 46 46 45 44 42 41 39 37 36 38 39 42 44 46 45 44 43 41
38 39 40 41 41 42 41 41 41 40 39 39 39 39 40 41 42 43 45 45 46 46 47 47 48 49 48 49 49 48 46 44 41 39 39 41 43 45 47 47 46 45 43
40 40 41 42 43 42 42 41 40 39 38 38 39 39 40 41 42 43 44 46 47 47 48 49 50 51 51 52 53 53 51 49 47 44 42 42 44 46 47 48 47 46 45
41 42 43 43 43 43 42 41 40 38 38 38 39 39 40 41 42 43 44 46 47 48 49 50 52 53 54 55 56 57 56 54 52 49 47 44 46 47 48 48 48 48 47
43 44 44 44 44 44 42 41 39 38 39 39 40 40 40 40 41 42 43 44 45 46 48 50 52 53 55 57 59 60 60 59 57 55 53 48 47 48 49 50 49 49 48
45 46 46 46 45 44 43 41 39 39 39 39 39 39 39 39 40 40 41 42 42 44 46 48 50 52 54 57 60 62 63 63 62 60 58 54 50 50 49 50 50 50 50
47 47 48 47 46 45 43 41 40 39 40 39 39 38 38 38 39 40 40 40 41 42 44 45 47 49 52 55 59 63 65 66 65 64 62 60 57 54 51 51 52 52 53
47 48 48 48 46 44 43 41 40 40 40 39 39 38 37 38 39 38 38 38 38 39 41 42 44 47 49 52 56 60 65 67 69 68 67 66 62 58 55 54 54 53 53
48 48 48 48 46 44 43 41 41 41 40 39 38 38 37 37 36 35 34 34 35 36 36 38 41 43 46 50 53 57 61 66 69 71 70 69 66 63 58 54 53 53 53
48 48 48 48 47 45 43 41 41 40 39 39 38 37 36 34 34 32 31 30 30 30 30 31 34 37 41 46 49 53 57 62 66 70 72 71 69 66 62 57 54 53 53
47 48 48 48 47 45 43 41 41 40 39 38 36 34 33 33 31 28 26 25 24 23 23 23 25 29 34 40 45 49 53 58 62 66 70 71 70 67 63 60 57 54 53
47 47 47 48 47 45 43 41 40 39 38 36 34 33 32 31 28 25 22 20 18 16 15 15 18 22 27 34 39 43 48 52 56 60 64 67 69 68 64 60 58 57 54
47 46 47 47 46 44 42 41 39 38 37 34 33 31 30 28 25 21 18 17 14 11 9 9 13 17 23 29 34 39 43 46 50 54 59 63 65 66 64 60 57 56 55
46 46 46 46 45 44 42 40 38 37 36 33 31 30 28 26 23 19 16 13 10 7 4 4 8 13 20 26 31 36 40 42 43 48 53 58 61 62 63 61 58 55 54
45 45 45 45 44 43 41 39 37 36 35 32 30 28 26 23 21 17 14 10 7 4 2 3 6 11 16 21 26 31 37 40 41 44 49 53 56 58 59 58 57 55 53
45 44 44 44 43 42 40 37 35 34 33 31 29 27 24 21 18 15 12 9 6 3 1 3 6 9 13 18 22 27 32 36 40 42 46 49 52 56 58 57 56 54 53
44 43 43 42 42 41 39 37 34 32 31 29 28 25 22 20 17 13 10 8 5 2 1 2 5 9 12 16 19 23 28 33 37 40 44 48 51 54 56 57 56 54 52
43 42 42 41 40 39 37 35 33 31 30 28 26 23 21 19 16 12 9 7 5 4 3 3 5 7 11 14 18 21 25 31 35 40 43 45 49 53 55 55 56 55 51
42 41 40 39 38 37 36 34 32 30 28 27 25 23 20 18 16 13 10 7 5 4 5 6 6 8 10 13 16 20 23 28 32 37 41 44 48 52 53 54 55 54 52
41 39 38 37 36 35 34 32 31 28 27 26 24 22 20 17 16 14 11 8 6 5 6 7 8 9 11 13 15 19 22 26 30 35 39 43 46 50 52 53 53 54 53
39 38 36 35 34 33 32 30 29 27 26 25 24 22 20 18 16 14 11 9 7 7 7 8 9 11 13 14 15 17 20 24 28 32 37 41 45 48 51 53 54 53 53
36 35 34 33 32 31 30 29 27 25 25 25 24 23 20 18 16 14 11 9 8 8 8 9 10 12 13 15 17 19 20 22 26 30 33 38 42 46 49 51 53 52 51
34 34 32 31 31 30 28 27 26 24 23 24 24 23 21 19 16 13 11 9 7 7 8 10 11 12 14 15 17 20 21 23 24 28 31 35 39 43 47 50 53 53 51
33 32 30 29 28 28 26 25 24 23 22 22 22 22 20 19 17 14 11 8 7 6 8 9 11 13 14 16 18 20 22 24 25 27 30 32 36 40 45 49 51 51 51
30 29 27 26 26 26 24 23 23 22 20 20 20 20 20 19 17 14 12 9 6 5 6 7 9 11 14 16 17 19 21 23 25 27 30 32 35 39 43 47 49 50 50
Wind_Direction
324 322 320 318 315 312 309 306 302 298 294 291 288 285 282 279 276 272 270 267 264 261 257 254 250 247 244 242 240 238 233 228 223 221 216 212 211 209 210 210 210 209 208
328 326 324 322 319 316 312 309 305 301 297 294 290 287 283 280 277 274 272 269 265 262 258 254 251 247 243 241 239 238 236 231 225 221 218 213 211 210 209 209 210 208 208
330 328 327 325 322 319 315 311 307 304 300 296 293 289 286 282 279 276 274 271 267 263 259 255 251 247 243 240 238 236 235 232 227 222 218 215 213 211 209 209 209 209 208
332 331 329 327 324 321 317 313 310 306 303 299 296 292 289 285 282 279 276 272 269 265 260 256 251 246 243 239 236 235 233 231 228 225 220 217 214 211 210 210 210 209 209
334 332 331 329 326 322 319 316 312 309 305 302 299 295 292 289 286 282 279 274 270 266 262 257 252 247 242 238 235 233 231 230 228 226 222 219 216 212 211 211 211 210 209
335 334 333 331 328 324 321 318 314 311 309 306 303 299 296 293 290 287 283 278 273 268 264 259 253 248 243 238 234 232 229 227 226 225 223 220 217 214 213 212 212 211 210
335 334 334 332 330 326 323 320 317 314 312 310 307 304 300 296 293 289 286 281 276 270 266 261 255 249 243 238 233 230 227 225 224 223 223 220 217 215 213 213 212 211 211
334 334 334 333 331 328 325 322 319 317 316 314 311 307 303 299 295 293 288 283 277 272 267 262 256 249 243 237 232 228 225 224 222 222 221 220 219 215 213 214 214 213 212
334 334 334 334 332 329 327 324 322 320 319 317 314 310 306 303 299 296 291 285 280 275 269 263 256 249 242 236 230 227 224 222 220 220 220 219 218 216 213 213 213 213 214
334 334 334 334 333 331 328 326 325 323 321 319 316 312 309 307 304 300 294 289 284 279 271 263 255 247 240 234 228 224 221 219 219 218 218 218 217 215 213 212 213 213 213
334 335 335 335 334 333 330 328 327 326 324 322 319 316 314 312 309 305 299 294 289 282 275 265 254 243 235 230 225 220 217 217 217 216 216 216 216 215 214 214 213 213 213
334 335 335 335 335 334 332 330 329 329 327 325 323 321 319 318 315 310 305 302 295 286 277 264 250 236 228 223 218 215 214 214 214 214 215 215 215 215 214 214 215 214 213
334 335 336 336 336 335 333 332 331 331 331 329 327 326 324 323 321 317 314 309 305 295 281 260 239 227 218 212 209 210 210 210 211 212 213 213 214 214 213 213 214 215 213
334 335 336 337 336 335 334 334 334 334 334 332 331 330 329 328 327 323 322 320 316 309 289 253 229 216 208 204 204 203 203 205 208 209 210 211 212 213 212 212 213 214 213
333 335 336 337 337 336 335 334 335 336 336 335 334 334 333 332 332 329 326 328 324 318 299 242 211 204 199 199 199 199 200 201 204 205 207 209 209 211 212 212 212 213 213
333 334 335 336 337 337 335 335 336 337 338 338 336 336 336 336 336 335 332 331 328 319 294 221 196 193 192 192 194 196 198 199 201 202 203 204 206 207 209 210 211 213 212
331 332 334 336 337 337 336 336 337 338 340 340 338 338 339 339 339 339 337 334 333 333 251 187 188 190 191 192 195 197 200 201 200 200 200 200 201 203 204 206 208 209 211
329 330 332 335 336 337 337 337 337 339 342 341 340 339 341 342 342 342 341 336 324 309 235 195 194 196 196 197 199 201 202 202 201 199 198 197 198 200 201 203 206 207 207
326 328 331 333 335 336 337 337 338 340 343 344 344 341 341 342 341 340 335 331 315 276 243 215 200 198 198 198 199 200 201 202 202 201 199 198 198 198 199 201 203 205 206
323 325 329 331 334 335 336 337 338 340 343 344 345 343 341 340 339 335 329 318 301 267 233 217 207 205 202 197 197 198 199 201 201 201 201 200 199 198 199 200 202 203 204
320 323 326 330 332 334 335 336 338 340 342 344 344 343 341 338 336 334 325 313 296 264 235 223 215 208 206 202 199 198 198 198 198 200 202 202 200 199 199 199 200 202 202
318 320 323 327 330 332 333 335 337 340 343 345 345 344 342 338 333 331 325 307 286 263 242 229 220 213 210 209 204 200 199 197 198 199 201 201 200 198 198 197 198 199 199
316 318 321 324 327 329 331 334 336 339 344 348 348 347 344 337 330 327 322 310 285 265 248 234 225 219 215 212 211 208 205 201 199 200 200 200 201 200 198 197 196 197 197
314 316 318 321 324 327 328 331 334 337 341 347 350 351 350 345 339 332 324 314 293 266 249 238 231 226 222 217 212 210 208 205 203 201 201 203 203 203 200 199 198 198 198
310 312 316 319 322 324 326 329 332 335 338 342 347 351 353 354 354 347 335 319 297 272 254 244 233 228 224 219 214 211 209 207 206 205 204 204 204 202 201 200 199 198 198
309 311 314 316 319 322 323 326 330 334 338 342 348 353 355 358 0 359 354 345 323 292 260 242 233 226 220 216 214 212 210 209 208 208 207 205 203 201 199 198 198 197 196